Location: Astronomy Club of Akron Observatory
(40.9700°N, 81.5606°W)
Time: 04:44:48
(UTC-04:00)

N. Korean satellite - Pass Details

Date: 20 February 2019
Orbit: 456 x 510 km, 97.2° (Epoch: 21 March)

Event Time Altitude Azimuth Distance (km) Brightness Sun altitude
Rises 05:52:56 0° 27° (NNE) 2,501 10.5 -16.0°
Reaches altitude 10° 05:55:23 10° 45° (NE) 1,612 9.8 -15.5°
Maximum altitude 05:58:00 20° 94° (E) 1,115 9.5 -15.0°
Drops below altitude 10° 06:00:36 10° 144° (SE) 1,592 9.7 -14.5°
Sets 06:03:00 0° 162° (SSE) 2,458 10.4 -14.1°
